Radiation Dose at Monitoring Post of Fukushima Daini Nuclear Power Station
Date,Time,MP-1(microSv/h),MP-2(microSv/h),MP-3(microSv/h),MP-4(microSv/h),MP-5(microSv/h),MP-6(microSv/h),MP-7(microSv/h),Wind Direction,Wind Velocity(m/s),Rain
2016/10/20,00:00,0.411,0.245,0.423,0.387,0.367,0.200,0.172,south-southwest,7.7,No
2016/10/20,00:10,0.409,0.245,0.421,0.388,0.370,0.200,0.172,south-southwest,7.7,No
2016/10/20,00:20,0.413,0.245,0.422,0.389,0.365,0.200,0.172,south-southwest,8.0,No
2016/10/20,00:30,0.412,0.247,0.421,0.390,0.367,0.199,0.172,south-southwest,5.8,No
2016/10/20,00:40,0.412,0.244,0.423,0.387,0.366,0.200,0.172,south-southwest,6.0,No
2016/10/20,00:50,0.410,0.245,0.423,0.390,0.367,0.200,0.171,south-southwest,5.6,No
2016/10/20,01:00,0.412,0.246,0.425,0.386,0.367,0.200,0.171,south-southwest,5.6,No
2016/10/20,01:10,0.410,0.246,0.422,0.389,0.368,0.200,0.171,south-southwest,5.6,No
2016/10/20,01:20,0.411,0.245,0.423,0.387,0.368,0.200,0.172,southwest,5.5,No
2016/10/20,01:30,0.410,0.245,0.422,0.390,0.367,0.200,0.172,south-southwest,5.0,No
2016/10/20,01:40,0.409,0.246,0.424,0.389,0.368,0.200,0.172,south-southwest,4.4,No
2016/10/20,01:50,0.411,0.246,0.421,0.390,0.366,0.200,0.173,southwest,4.5,No
2016/10/20,02:00,0.409,0.245,0.421,0.389,0.370,0.199,0.172,southwest,3.1,No
2016/10/20,02:10,0.412,0.247,0.423,0.389,0.366,0.200,0.171,west-southwest,1.6,No
2016/10/20,02:20,0.409,0.245,0.423,0.388,0.368,0.199,0.172,west,4.2,No
2016/10/20,02:30,0.412,0.247,0.424,0.386,0.366,0.201,0.172,west,5.3,No
2016/10/20,02:40,0.410,0.246,0.422,0.388,0.370,0.200,0.172,west,5.3,No
2016/10/20,02:50,0.411,0.246,0.423,0.387,0.367,0.200,0.172,west,3.8,No
2016/10/20,03:00,0.410,0.246,0.422,0.389,0.366,0.200,0.173,west-northwest,1.7,No
2016/10/20,03:10,0.410,0.246,0.425,0.387,0.367,0.199,0.172,west-southwest,1.7,No
2016/10/20,03:20,0.411,0.245,0.421,0.387,0.366,0.200,0.171,west-southwest,3.5,No
2016/10/20,03:30,0.410,0.245,0.424,0.385,0.368,0.199,0.172,west-southwest,6.2,No
2016/10/20,03:40,0.413,0.245,0.422,0.388,0.365,0.200,0.171,west-southwest,7.4,No
2016/10/20,03:50,0.410,0.246,0.422,0.387,0.369,0.199,0.172,west-southwest,6.7,No
2016/10/20,04:00,0.411,0.245,0.420,0.389,0.366,0.200,0.170,southwest,7.5,No
2016/10/20,04:10,0.409,0.246,0.424,0.387,0.369,0.201,0.172,southwest,6.9,No
2016/10/20,04:20,0.410,0.244,0.419,0.389,0.367,0.199,0.171,southwest,7.3,No
2016/10/20,04:30,0.409,0.246,0.422,0.387,0.369,0.199,0.171,southwest,7.2,No
2016/10/20,04:40,0.411,0.245,0.420,0.390,0.367,0.199,0.171,southwest,9.2,No
2016/10/20,04:50,0.410,0.245,0.425,0.387,0.367,0.199,0.171,west-southwest,8.4,No
2016/10/20,05:00,0.410,0.245,0.422,0.389,0.368,0.201,0.172,southwest,9.2,No
2016/10/20,05:10,0.411,0.246,0.423,0.386,0.368,0.199,0.171,southwest,8.0,No
2016/10/20,05:20,0.410,0.246,0.420,0.390,0.369,0.200,0.172,west-southwest,7.3,No
2016/10/20,05:30,0.410,0.245,0.424,0.387,0.367,0.200,0.171,west-southwest,6.3,No
2016/10/20,05:40,0.409,0.247,0.420,0.389,0.369,0.201,0.172,west-southwest,5.5,No
2016/10/20,05:50,0.413,0.245,0.424,0.386,0.367,0.200,0.171,southwest,6.4,No
2016/10/20,06:00,0.408,0.246,0.422,0.388,0.365,0.200,0.171,southwest,6.2,No
2016/10/20,06:10,0.411,0.245,0.423,0.387,0.365,0.199,0.171,southwest,6.0,No
2016/10/20,06:20,0.408,0.245,0.421,0.390,0.369,0.200,0.172,west-southwest,4.6,No
2016/10/20,06:30,0.413,0.245,0.425,0.385,0.366,0.200,0.171,southwest,4.8,No
2016/10/20,06:40,0.409,0.244,0.421,0.386,0.369,0.200,0.173,southwest,4.5,No
2016/10/20,06:50,0.410,0.245,0.423,0.385,0.367,0.199,0.171,southwest,5.6,No
2016/10/20,07:00,0.410,0.246,0.419,0.387,0.370,0.200,0.171,south-southwest,5.6,No
2016/10/20,07:10,0.411,0.246,0.422,0.386,0.365,0.198,0.171,south-southwest,5.7,No
2016/10/20,07:20,0.411,0.245,0.421,0.389,0.368,0.201,0.170,south-southwest,4.8,No
2016/10/20,07:30,0.410,0.246,0.422,0.386,0.366,0.200,0.172,south-southwest,4.6,No
2016/10/20,07:40,0.410,0.245,0.420,0.385,0.368,0.200,0.172,south-southwest,3.6,No
2016/10/20,07:50,0.409,0.246,0.423,0.386,0.365,0.200,0.170,southwest,1.3,No
2016/10/20,08:00,0.409,0.245,0.420,0.384,0.368,0.200,0.170,-,CALM,No
2016/10/20,08:10,0.409,0.246,0.423,0.387,0.368,0.200,0.169,southwest,0.6,No
2016/10/20,08:20,0.410,0.245,0.421,0.388,0.367,0.201,0.172,south,1.1,No
2016/10/20,08:30,0.411,0.246,0.424,0.384,0.367,0.201,0.172,southeast,0.9,No
2016/10/20,08:40,0.408,0.246,0.420,0.387,0.366,0.201,0.172,south-southwest,3.1,No
2016/10/20,08:50,0.411,0.242,0.423,0.388,0.370,0.201,0.171,south-southwest,1.1,No
2016/10/20,09:00,0.409,0.243,0.422,0.385,0.367,0.198,0.171,west,2.2,No
2016/10/20,09:10,0.406,0.244,0.421,0.383,0.364,0.198,0.171,northwest,5.3,No
2016/10/20,09:20,0.411,0.244,0.423,0.382,0.368,0.199,0.170,west-northwest,8.3,No
2016/10/20,09:30,0.410,0.245,0.420,0.382,0.368,0.200,0.171,west-northwest,10.1,No
2016/10/20,09:40,0.410,0.243,0.424,0.382,0.365,0.199,0.170,north-northwest,5.0,No
2016/10/20,09:50,0.408,0.244,0.422,0.382,0.364,0.200,0.171,north,3.6,No
2016/10/20,10:00,0.406,0.245,0.420,0.384,0.364,0.200,0.170,north-northwest,4.1,No
2016/10/20,10:10,0.411,0.247,0.423,0.385,0.370,0.199,0.171,northwest,7.3,No
2016/10/20,10:20,0.410,0.247,0.423,0.385,0.368,0.200,0.169,west-northwest,8.5,No
2016/10/20,10:30,0.410,0.245,0.418,0.385,0.368,0.201,0.170,west-northwest,6.2,No
2016/10/20,10:40,0.407,0.244,0.424,0.386,0.366,0.198,0.170,west-northwest,6.1,No
2016/10/20,10:50,0.407,0.244,0.422,0.388,0.366,0.199,0.171,west-northwest,5.4,No
2016/10/20,11:00,0.407,0.245,0.419,0.386,0.366,0.199,0.171,west-northwest,6.2,No
2016/10/20,11:10,0.408,0.244,0.416,0.387,0.365,0.199,0.170,northwest,8.7,No
2016/10/20,11:20,0.406,0.244,0.422,0.386,0.364,0.200,0.170,west-northwest,7.7,No
2016/10/20,11:30,0.407,0.245,0.425,0.386,0.365,0.200,0.171,west-northwest,7.4,No
2016/10/20,11:40,0.409,0.244,0.420,0.381,0.365,0.200,0.170,northwest,7.0,No
2016/10/20,11:50,0.416,0.245,0.418,0.385,0.363,0.199,0.171,northwest,9.2,No
2016/10/20,12:00,0.413,0.244,0.417,0.387,0.364,0.200,0.170,northwest,9.5,No
2016/10/20,12:10,0.411,0.244,0.419,0.387,0.368,0.201,0.171,west-northwest,6.4,No
2016/10/20,12:20,0.408,0.245,0.418,0.387,0.367,0.201,0.171,west-northwest,6.9,No
2016/10/20,12:30,0.411,0.245,0.419,0.386,0.366,0.201,0.171,west-northwest,8.6,No
2016/10/20,12:40,0.415,0.244,0.420,0.388,0.368,0.201,0.171,west-northwest,8.3,No
2016/10/20,12:50,0.414,0.244,0.419,0.388,0.366,0.200,0.171,west-northwest,8.3,No
2016/10/20,13:00,0.410,0.244,0.420,0.388,0.366,0.200,0.171,west-northwest,9.7,No
2016/10/20,13:10,0.409,0.245,0.419,0.387,0.366,0.201,0.171,west-northwest,9.2,No
2016/10/20,13:20,0.414,0.247,0.420,0.388,0.365,0.202,0.172,west-northwest,7.9,No
2016/10/20,13:30,0.413,0.248,0.420,0.388,0.365,0.203,0.171,west-northwest,6.3,No
2016/10/20,13:40,0.411,0.248,0.421,0.386,0.366,0.202,0.171,west-northwest,8.9,No
2016/10/20,13:50,0.409,0.247,0.419,0.388,0.366,0.202,0.172,west-northwest,9.6,No
2016/10/20,14:00,0.413,0.247,0.420,0.387,0.365,0.200,0.170,west-northwest,9.7,No
2016/10/20,14:10,0.416,0.246,0.427,0.385,0.366,0.201,0.173,west-northwest,8.4,No
2016/10/20,14:20,0.411,0.246,0.422,0.389,0.367,0.201,0.172,west-northwest,7.8,No
2016/10/20,14:30,0.412,0.248,0.424,0.393,0.369,0.202,0.172,west-northwest,7.1,No
2016/10/20,14:40,0.414,0.249,0.425,0.390,0.371,0.202,0.171,northwest,5.0,No
2016/10/20,14:50,0.413,0.247,0.428,0.389,0.370,0.201,0.172,north-northwest,3.6,No
2016/10/20,15:00,0.410,0.247,0.424,0.392,0.367,0.200,0.173,north-northwest,3.1,No
2016/10/20,15:10,0.415,0.248,0.422,0.390,0.372,0.201,0.172,west-northwest,3.7,No
2016/10/20,15:20,0.412,0.246,0.426,0.388,0.370,0.201,0.172,west-northwest,3.5,No
2016/10/20,15:30,0.409,0.249,0.424,0.392,0.367,0.200,0.172,west-northwest,4.6,No
2016/10/20,15:40,0.416,0.247,0.420,0.390,0.368,0.202,0.172,northwest,2.9,No
2016/10/20,15:50,0.415,0.246,0.428,0.387,0.371,0.202,0.173,north-northwest,3.4,No
2016/10/20,16:00,0.410,0.249,0.424,0.393,0.368,0.202,0.173,northwest,2.8,No
2016/10/20,16:10,0.415,0.247,0.422,0.389,0.366,0.201,0.171,west-northwest,2.5,No
2016/10/20,16:20,0.413,0.247,0.425,0.389,0.371,0.200,0.173,west-northwest,2.5,No
2016/10/20,16:30,0.413,0.249,0.422,0.392,0.367,0.202,0.173,northwest,3.3,No
2016/10/20,16:40,0.415,0.246,0.425,0.388,0.369,0.199,0.172,west-northwest,5.7,No
2016/10/20,16:50,0.411,0.248,0.426,0.390,0.369,0.201,0.174,west-northwest,4.4,No
2016/10/20,17:00,0.414,0.247,0.423,0.392,0.367,0.201,0.172,northwest,4.2,No
2016/10/20,17:10,0.413,0.248,0.427,0.388,0.371,0.201,0.172,west-southwest,1.6,No
2016/10/20,17:20,0.412,0.249,0.424,0.391,0.368,0.201,0.172,southwest,1.0,No
2016/10/20,17:30,0.414,0.247,0.427,0.388,0.371,0.202,0.174,southwest,1.6,No
2016/10/20,17:40,0.412,0.250,0.426,0.390,0.368,0.202,0.172,west-southwest,1.4,No
2016/10/20,17:50,0.415,0.247,0.424,0.389,0.370,0.201,0.173,northwest,1.3,No
2016/10/20,18:00,0.412,0.249,0.426,0.391,0.368,0.201,0.172,northwest,0.6,No
2016/10/20,18:10,0.416,0.247,0.425,0.390,0.370,0.201,0.174,west-northwest,2.6,No
2016/10/20,18:20,0.412,0.248,0.427,0.391,0.369,0.201,0.173,west-northwest,3.1,No
2016/10/20,18:30,0.415,0.248,0.424,0.391,0.371,0.201,0.173,northwest,2.5,No
2016/10/20,18:40,0.412,0.249,0.427,0.390,0.369,0.202,0.173,southwest,1.1,No
2016/10/20,18:50,0.413,0.246,0.424,0.390,0.370,0.201,0.173,west-southwest,1.5,No
2016/10/20,19:00,0.411,0.248,0.426,0.389,0.369,0.202,0.174,west-southwest,1.0,No
2016/10/20,19:10,0.414,0.247,0.425,0.391,0.370,0.201,0.174,west-northwest,0.8,No
2016/10/20,19:20,0.412,0.249,0.427,0.390,0.369,0.202,0.172,west-southwest,1.4,No
2016/10/20,19:30,0.414,0.249,0.424,0.390,0.371,0.201,0.172,southwest,0.9,No
2016/10/20,19:40,0.412,0.247,0.426,0.393,0.368,0.202,0.173,-,CALM,No
2016/10/20,19:50,0.415,0.248,0.424,0.392,0.371,0.201,0.173,west,1.4,No
2016/10/20,20:00,0.414,0.247,0.426,0.390,0.369,0.202,0.173,southwest,0.9,No
2016/10/20,20:10,0.413,0.248,0.425,0.390,0.371,0.203,0.173,west-southwest,0.8,No
2016/10/20,20:20,0.414,0.247,0.426,0.391,0.367,0.201,0.173,-,CALM,No
2016/10/20,20:30,0.413,0.248,0.427,0.390,0.370,0.202,0.173,north-northeast,1.4,No
2016/10/20,20:40,0.415,0.249,0.426,0.392,0.370,0.202,0.173,north,2.7,No
2016/10/20,20:50,0.412,0.247,0.426,0.389,0.367,0.201,0.173,north-northwest,2.1,No
2016/10/20,21:00,0.415,0.249,0.425,0.392,0.368,0.201,0.174,northwest,3.1,No
2016/10/20,21:10,0.412,0.248,0.427,0.391,0.368,0.201,0.173,north-northwest,2.3,No
2016/10/20,21:20,0.413,0.248,0.426,0.391,0.371,0.200,0.172,north-northwest,2.8,No
2016/10/20,21:30,0.413,0.249,0.428,0.391,0.367,0.201,0.173,north,2.0,No
2016/10/20,21:40,0.413,0.247,0.424,0.392,0.370,0.201,0.173,northwest,1.7,No
2016/10/20,21:50,0.416,0.248,0.426,0.394,0.368,0.200,0.172,north-northwest,1.4,No
2016/10/20,22:00,0.413,0.249,0.424,0.391,0.369,0.201,0.174,north-northwest,0.5,No
2016/10/20,22:10,0.417,0.247,0.426,0.392,0.371,0.202,0.173,northwest,0.9,No
2016/10/20,22:20,0.413,0.249,0.425,0.390,0.368,0.201,0.174,north-northwest,1.9,No
2016/10/20,22:30,0.414,0.248,0.425,0.395,0.372,0.202,0.174,north-northwest,1.5,No
2016/10/20,22:40,0.415,0.248,0.427,0.390,0.368,0.202,0.173,north,2.5,No
2016/10/20,22:50,0.413,0.248,0.424,0.392,0.369,0.201,0.173,north-northwest,4.1,No
2016/10/20,23:00,0.414,0.248,0.425,0.391,0.368,0.201,0.174,north,5.6,No
2016/10/20,23:10,0.411,0.247,0.426,0.392,0.368,0.201,0.173,north,6.2,No
2016/10/20,23:20,0.414,0.248,0.424,0.392,0.371,0.201,0.174,north,7.6,No
2016/10/20,23:30,0.414,0.248,0.425,0.390,0.370,0.202,0.174,northwest,1.6,No
2016/10/20,23:40,0.412,0.249,0.426,0.394,0.369,0.200,0.173,west-southwest,0.9,No
2016/10/20,23:50,0.415,0.249,0.428,0.390,0.369,0.202,0.174,north-northwest,5.0,No
